Flag for U.S.A. Weather past 2 weeks in Monticello, Kentucky, U.S.A.

Now
72 °F

Fog.


Feels Like: 70 °F
Forecast: 68 / 92 °F
Wind: 3 mph from Northwest

Location: London-Corbin Airport-Magee Field

Current Time: Aug 20, 2014 at 5:05:57 AM

Latest Report: Aug 20, 2014 at 3:53 AM


Visibility: 6 mi

Pressure: 29.90 "Hg

Humidity: 87%

Dew point: 68 °F

Location of MonticelloLocation

Historic Weather in Monticello — Graph

°F

Monticello temperature yesterday

Maximum temperature yesterday: 86 °F (at 3:53 PM)
Minimum temperature yesterday: 69 °F (at 2:58 AM)
Average temperature yesterday: 76 °F

Past Weeks' High & Low Weather Summary

 TemperatureHumidityPressure
High86 °F (Aug 6, 2:53 PM)94% (Aug 8, 10:53 PM)30.12 "Hg (Aug 8, 10:53 PM)
Low56 °F (Aug 14, 6:53 AM)34% (Aug 15, 3:53 PM)29.82 "Hg (Aug 18, 5:53 PM)
Average73 °F77%29.98 "Hg
* Reported Aug 5 3:53 AM — Aug 20 3:53 AM, Monticello, Weather by CustomWeather, © 2014

Note: Actual official high and low records may vary slightly from our data, if they occured in-between our weather recording intervals... More about our weather records

Advertising

Monticello weather history for previous 24 hours

 ConditionsComfort  
Time TempWeatherWind HumidityBarometerVisibility
3:53 AM
Aug 20
72 °FFog.3 mph87%29.90 "Hg6 mi
2:53 AM73 °FFog.No wind88%29.88 "Hg6 mi
1:53 AM71 °FFog.No wind90%29.90 "Hg4 mi
12:53 AM73 °FFog.No wind88%29.92 "Hg6 mi
11:53 PM
Aug 19
72 °FFog.No wind91%29.89 "Hg6 mi
10:53 PM74 °FFog.No wind88%29.90 "Hg6 mi
9:53 PM74 °FFog.No wind88%29.90 "Hg6 mi
8:53 PM79 °FSunny.3 mph72%29.88 "Hg10 mi
7:53 PM82 °FSunny.3 mph63%29.86 "Hg10 mi
6:53 PM84 °FSunny.7 mph59%29.85 "Hg10 mi
5:53 PM85 °FScattered clouds.10 mph57%29.84 "Hg10 mi
4:53 PM85 °FPassing clouds.9 mph55%29.84 "Hg10 mi
3:53 PM86 °FPassing clouds.13 mph57%29.86 "Hg10 mi
2:53 PM84 °FSunny.7 mph59%29.87 "Hg10 mi
1:53 PM81 °FPassing clouds.6 mph69%29.89 "Hg10 mi
12:53 PM76 °FCloudy.5 mph80%29.91 "Hg10 mi
12:03 PM80 °FBroken clouds.7 mph67%29.95 "Hg10 mi
11:53 AM79 °FPartly sunny.7 mph69%29.91 "Hg10 mi
10:53 AM75 °FCloudy.3 mph82%29.91 "Hg10 mi
9:53 AM74 °FMostly cloudy.6 mph85%29.90 "Hg10 mi
8:53 AM73 °FLight rain. Fog.5 mph88%29.89 "Hg4 mi
7:53 AM72 °FFog.3 mph91%29.87 "Hg3 mi
6:53 AM70 °FFog.No wind93%29.86 "Hg4 mi
6:01 AM70 °FFog.No wind93%29.89 "Hg2 mi
5:53 AM70 °FFog.No wind93%29.85 "Hg1 mi
Weather by CustomWeather, © 2014

See weather overviewHow to use our weather pages